User: anonymous   Login
Location: Newark
(41.0400°S, 62.7845°W)
Time: 03:27:05
(UTC+00:00)
Language:

Courier 1B - Orbit

View from above orbital plane
View from above orbital plane
View from above satellite
View from above satellite

Ground track
Ground track

The orbit data is extracted from the following two-line orbital elements,

1 00058U 60013A   21331.59295315  .00000096  00000-0  17552-4 0  9991
2 00058  28.3280 295.2320 0165078 121.7907 239.8829 13.46329975  9835
Epoch (UTC): 27 November 2021 14:13:51
Eccentricity: 0.0165078
inclination: 28.3280°
perigee height: 962 km
apogee height: 1209 km
right ascension of ascending node: 295.2320°
argument of perigee: 121.7907°
revolutions per day: 13.46329975
mean anomaly at epoch: 239.8829°
orbit number at epoch: 983

The dashed part of the orbit path shows where the satellite is in the earth's shadow,  

DLR